• In Portugal
  • List of Countries
  • For 7 days
  • Water Temperature
  • Satellite Maps
  • Weather Map
  • Weather Widgets
  • user-avatar
    Login

    Hourly Weather Mosul

    Today, 23 September, Saturday

    Time Temperature Precipitation Wind Pressure Humidity
    00:00 +33°C° 0 mm 4 mps 729 mmHg 19%
    01:00 +33°C° 0 mm 4 mps 729 mmHg 21%
    02:00 +32°C° 0 mm 4 mps 729 mmHg 23%
    03:00 +30°C° 0 mm 3 mps 729 mmHg 25%
    04:00 +29°C° 0 mm 3 mps 729 mmHg 28%
    05:00 +28°C° 0 mm 3 mps 729 mmHg 30%
    06:00 +27°C° 0 mm 3 mps 730 mmHg 33%
    07:00 +29°C° 0 mm 3 mps 730 mmHg 30%
    08:00 +30°C° 0 mm 3 mps 730 mmHg 27%
    09:00 +32°C° 0 mm 4 mps 731 mmHg 25%
    10:00 +34°C° 0 mm 4 mps 731 mmHg 21%
    11:00 +35°C° 0 mm 4 mps 731 mmHg 16%
    12:00 +37°C° 0 mm 5 mps 731 mmHg 12%
    13:00 +39°C° 0 mm 5 mps 731 mmHg 10%
    14:00 +39°C° 0 mm 6 mps 731 mmHg 9%
    15:00 +40°C° 0 mm 6 mps 731 mmHg 8%
    16:00 +39°C° 0 mm 6 mps 731 mmHg 9%
    17:00 +37°C° 0 mm 5 mps 731 mmHg 11%
    18:00 +36°C° 0 mm 5 mps 731 mmHg 13%
    19:00 +35°C° 0 mm 4 mps 731 mmHg 15%
    20:00 +34°C° 0 mm 4 mps 731 mmHg 17%
    21:00 +33°C° 0 mm 4 mps 731 mmHg 20%
    22:00 +32°C° 0 mm 4 mps 731 mmHg 21%
    23:00 +30°C° 0 mm 4 mps 731 mmHg 23%

    Tomorrow, 24 September, Sunday

    Time Temperature Precipitation Wind Pressure Humidity
    00:00 +30°C° 0 mm 4 mps 731 mmHg 25%
    01:00 +29°C° 0 mm 3 mps 731 mmHg 26%
    02:00 +29°C° 0 mm 3 mps 731 mmHg 27%
    03:00 +28°C° 0 mm 3 mps 730 mmHg 28%
    04:00 +27°C° 0 mm 3 mps 730 mmHg 28%
    05:00 +27°C° 0 mm 2 mps 730 mmHg 29%
    06:00 +26°C° 0 mm 2 mps 730 mmHg 29%
    07:00 +28°C° 0 mm 2 mps 731 mmHg 26%
    08:00 +30°C° 0 mm 3 mps 731 mmHg 23%
    09:00 +31°C° 0 mm 3 mps 732 mmHg 20%
    10:00 +34°C° 0 mm 3 mps 732 mmHg 17%
    11:00 +35°C° 0 mm 3 mps 732 mmHg 14%
    12:00 +37°C° 0 mm 3 mps 732 mmHg 11%
    13:00 +38°C° 0 mm 3 mps 731 mmHg 11%
    14:00 +38°C° 0 mm 4 mps 731 mmHg 11%
    15:00 +40°C° 0 mm 4 mps 731 mmHg 11%
    16:00 +38°C° 0 mm 4 mps 731 mmHg 12%
    17:00 +37°C° 0 mm 3 mps 731 mmHg 13%
    18:00 +37°C° 0 mm 3 mps 731 mmHg 14%
    19:00 +36°C° 0 mm 3 mps 731 mmHg 15%
    20:00 +35°C° 0 mm 3 mps 731 mmHg 16%
    21:00 +34°C° 0 mm 3 mps 731 mmHg 16%
    22:00 +34°C° 0 mm 3 mps 731 mmHg 17%
    23:00 +33°C° 0 mm 3 mps 731 mmHg 18%

    Day after tomorrow, 25 September, Monday

    Time Temperature Precipitation Wind Pressure Humidity
    00:00 +33°C° 0 mm 3 mps 731 mmHg 18%
    01:00 +31°C° 0 mm 3 mps 730 mmHg 18%
    02:00 +30°C° 0 mm 3 mps 730 mmHg 19%
    03:00 +30°C° 0 mm 3 mps 730 mmHg 19%
    04:00 +29°C° 0 mm 2 mps 730 mmHg 18%
    05:00 +29°C° 0 mm 2 mps 730 mmHg 18%
    06:00 +29°C° 0 mm 2 mps 730 mmHg 18%
    07:00 +30°C° 0 mm 2 mps 731 mmHg 16%
    08:00 +33°C° 0 mm 3 mps 731 mmHg 14%
    09:00 +34°C° 0 mm 3 mps 731 mmHg 13%
    10:00 +36°C° 0 mm 2 mps 731 mmHg 12%
    11:00 +37°C° 0 mm 2 mps 731 mmHg 11%
    12:00 +38°C° 0 mm 2 mps 731 mmHg 11%
    13:00 +39°C° 0 mm 2 mps 730 mmHg 11%
    14:00 +40°C° 0 mm 2 mps 730 mmHg 11%
    15:00 +40°C° 0 mm 2 mps 730 mmHg 11%
    16:00 +39°C° 0 mm 2 mps 730 mmHg 12%
    17:00 +39°C° 0 mm 2 mps 730 mmHg 12%
    18:00 +38°C° 0 mm 2 mps 730 mmHg 13%
    19:00 +37°C° 0 mm 2 mps 730 mmHg 14%
    20:00 +36°C° 0 mm 2 mps 730 mmHg 15%
    21:00 +35°C° 0 mm 2 mps 730 mmHg 15%
    22:00 +35°C° 0 mm 2 mps 730 mmHg 16%
    23:00 +34°C° 0 mm 2 mps 730 mmHg 17%

    26 September, Tuesday

    Time Temperature Precipitation Wind Pressure Humidity
    00:00 +34°C° 0 mm 2 mps 730 mmHg 17%
    01:00 +32°C° 0 mm 2 mps 730 mmHg 18%
    02:00 +31°C° 0 mm 2 mps 729 mmHg 18%
    03:00 +31°C° 0 mm 2 mps 729 mmHg 18%
    04:00 +30°C° 0 mm 2 mps 729 mmHg 18%
    05:00 +30°C° 0 mm 2 mps 729 mmHg 18%
    06:00 +30°C° 0 mm 3 mps 729 mmHg 18%
    07:00 +31°C° 0 mm 3 mps 730 mmHg 16%
    08:00 +34°C° 0 mm 3 mps 730 mmHg 14%
    09:00 +36°C° 0 mm 3 mps 730 mmHg 12%
    10:00 +37°C° 0 mm 3 mps 730 mmHg 12%
    11:00 +39°C° 0 mm 2 mps 730 mmHg 12%
    12:00 +40°C° 0 mm 2 mps 730 mmHg 11%
    13:00 +40°C° 0 mm 2 mps 730 mmHg 11%
    14:00 +41°C° 0 mm 2 mps 729 mmHg 11%
    15:00 +42°C° 0 mm 3 mps 729 mmHg 10%
    16:00 +40°C° 0 mm 2 mps 729 mmHg 11%
    17:00 +39°C° 0 mm 2 mps 729 mmHg 12%
    18:00 +38°C° 0 mm 2 mps 729 mmHg 12%
    19:00 +37°C° 0 mm 2 mps 729 mmHg 13%
    20:00 +36°C° 0 mm 2 mps 730 mmHg 14%
    21:00 +35°C° 0 mm 3 mps 730 mmHg 14%
    22:00 +34°C° 0 mm 3 mps 730 mmHg 16%
    23:00 +34°C° 0 mm 3 mps 730 mmHg 18%

    27 September, Wednesday

    Time Temperature Precipitation Wind Pressure Humidity
    00:00 +33°C° 0 mm 3 mps 729 mmHg 20%
    01:00 +31°C° 0 mm 3 mps 729 mmHg 21%
    02:00 +31°C° 0 mm 3 mps 729 mmHg 22%
    03:00 +30°C° 0 mm 3 mps 729 mmHg 23%
    04:00 +30°C° 0 mm 3 mps 729 mmHg 24%
    05:00 +29°C° 0 mm 3 mps 730 mmHg 26%
    06:00 +29°C° 0 mm 2 mps 730 mmHg 27%
    07:00 +30°C° 0 mm 2 mps 730 mmHg 25%
    08:00 +33°C° 0 mm 3 mps 731 mmHg 22%
    09:00 +34°C° 0 mm 3 mps 731 mmHg 20%
    10:00 +35°C° 0 mm 2 mps 731 mmHg 18%
    11:00 +37°C° 0 mm 2 mps 731 mmHg 16%
    12:00 +38°C° 0 mm 2 mps 731 mmHg 15%
    13:00 +38°C° 0 mm 2 mps 731 mmHg 14%
    14:00 +39°C° 0 mm 3 mps 730 mmHg 13%
    15:00 +41°C° 0 mm 4 mps 730 mmHg 13%
    16:00 +40°C° 0 mm 4 mps 730 mmHg 13%
    17:00 +38°C° 0 mm 4 mps 730 mmHg 14%
    18:00 +37°C° 0 mm 4 mps 730 mmHg 15%
    19:00 +36°C° 0 mm 4 mps 730 mmHg 17%
    20:00 +35°C° 0 mm 4 mps 731 mmHg 19%
    21:00 +34°C° 0 mm 4 mps 731 mmHg 21%
    22:00 +33°C° 0 mm 4 mps 731 mmHg 22%
    23:00 +32°C° 0 mm 4 mps 730 mmHg 23%

    28 September, Thursday

    Time Temperature Precipitation Wind Pressure Humidity
    00:00 +32°C° 0 mm 4 mps 730 mmHg 24%
    01:00 +30°C° 0 mm 4 mps 730 mmHg 25%
    02:00 +29°C° 0 mm 3 mps 730 mmHg 27%
    03:00 +29°C° 0 mm 3 mps 730 mmHg 28%
    04:00 +28°C° 0 mm 3 mps 730 mmHg 29%
    05:00 +28°C° 0 mm 3 mps 730 mmHg 30%
    06:00 +27°C° 0 mm 2 mps 730 mmHg 31%
    07:00 +28°C° 0 mm 2 mps 730 mmHg 29%
    08:00 +30°C° 0 mm 2 mps 731 mmHg 27%
    09:00 +31°C° 0 mm 2 mps 731 mmHg 25%
    10:00 +32°C° 0 mm 2 mps 731 mmHg 22%
    11:00 +35°C° 0 mm 3 mps 731 mmHg 20%
    12:00 +36°C° 0 mm 3 mps 731 mmHg 17%
    13:00 +36°C° 0 mm 3 mps 731 mmHg 16%
    14:00 +37°C° 0 mm 4 mps 730 mmHg 14%
    15:00 +38°C° 0 mm 4 mps 730 mmHg 13%
    16:00 +37°C° 0 mm 4 mps 730 mmHg 14%
    17:00 +36°C° 0 mm 3 mps 730 mmHg 14%
    18:00 +35°C° 0 mm 3 mps 730 mmHg 15%
    19:00 +34°C° 0 mm 3 mps 730 mmHg 16%
    20:00 +33°C° 0 mm 3 mps 731 mmHg 17%
    21:00 +33°C° 0 mm 3 mps 731 mmHg 18%
    22:00 +31°C° 0 mm 3 mps 731 mmHg 19%
    23:00 +30°C° 0 mm 3 mps 730 mmHg 20%
    Show more